Weather History for Defiance, OH

Change the Weather History Date:

Saturday, February 9, 2013

  Actual Average Record
Temperature  
Mean Temperature 22 °F -  
Max Temperature 32 °F 31 °F 60 °F (1938)
Min Temperature 12 °F 11 °F -10 °F (1967)
Degree Days  
Heating Degree Days 43    
Moisture  
Dew Point 15 °F    
Average Humidity 74    
Maximum Humidity 84    
Minimum Humidity 54    
Precipitation  
Precipitation 0.00 in - - ()
Sea Level Pressure  
Sea Level Pressure 30.40 in    
Wind  
Wind Speed 2 mph (ESE)    
Max Wind Speed 7 mph    
Max Gust Speed -    
Visibility 10 miles    
Events      
Averages and records for this station are not official NWS values.
T = Trace of Precipitation, MM = Missing Value Source: NWS Daily Summary

Daily Weather History Graph

Daily Weather History Graph

Search for Another Location

Airport:

Trip Planner

Search our weather history database for the weather conditions in past years. The results will help you decide how hot, cold, wet, or windy it might be!

Date:

Astronomy

Feb. 09, 2013 Rise Set
Actual Time 7:39 AM EST 6:04 PM EST
Civil Twilight 7:11 AM EST 6:33 PM EST
Nautical Twilight 6:38 AM EST 7:05 PM EST
Astronomical Twilight 6:06 AM EST 7:38 PM EST
Moon 6:50 AM EST (2/9) 5:46 PM EST (2/9)
Length of Visible Light 11h 22m
Length of Day
10h 24m
Waning Crescent, 0% of the Moon is Illuminated
Feb 9
Waning Crescent
Feb 10
New
Feb 17
First Quarter
Feb 25
Full
Mar 4
Last Quarter

Hourly Weather History & Observations

Time (EST) Temp. Windchill Dew Point Humidity Pressure Visibility Wind Dir Wind Speed Gust Speed Precip Events Conditions
12:53 AM 19.0 °F - 14.0 °F 81% 30.39 in 10.0 mi Calm Calm - N/A   Clear
1:53 AM 16.0 °F - 12.0 °F 84% 30.40 in 10.0 mi Calm Calm - N/A   Clear
2:53 AM 17.1 °F - 12.0 °F 81% 30.42 in 10.0 mi Calm Calm - N/A   Clear
3:53 AM 16.0 °F - 10.9 °F 81% 30.42 in 8.0 mi Calm Calm - N/A   Clear
4:53 AM 14.0 °F - 9.0 °F 80% 30.41 in 10.0 mi Calm Calm - N/A   Clear
5:53 AM 12.9 °F - 9.0 °F 84% 30.44 in 9.0 mi Calm Calm - N/A   Clear
6:53 AM 12.9 °F - 8.1 °F 81% 30.45 in 10.0 mi Calm Calm - N/A   Clear
7:53 AM 12.9 °F - 9.0 °F 84% 30.47 in 8.0 mi Calm Calm - N/A   Clear
8:53 AM 17.1 °F - 12.9 °F 84% 30.47 in 8.0 mi Calm Calm - N/A   Clear
9:53 AM 21.9 °F 13.4 °F 16.0 °F 78% 30.48 in 10.0 mi East 6.9 mph - N/A   Clear
10:53 AM 25.0 °F 19.3 °F 17.1 °F 72% 30.47 in 10.0 mi Variable 4.6 mph - N/A   Clear
11:53 AM 27.0 °F 21.6 °F 17.1 °F 66% 30.46 in 10.0 mi Variable 4.6 mph - N/A   Clear
12:53 PM 28.9 °F - 17.1 °F 61% 30.44 in 10.0 mi Calm Calm - N/A   Clear
1:53 PM 30.9 °F 26.2 °F 16.0 °F 54% 30.42 in 10.0 mi ESE 4.6 mph - N/A   Clear
2:53 PM 30.9 °F 26.2 °F 18.0 °F 59% 30.40 in 10.0 mi SSE 4.6 mph - N/A   Clear
3:53 PM 32.0 °F 25.6 °F 17.1 °F 54% 30.37 in 10.0 mi ESE 6.9 mph - N/A   Clear
4:53 PM 32.0 °F 26.4 °F 19.0 °F 59% 30.36 in 10.0 mi SE 5.8 mph - N/A   Clear
5:53 PM 28.9 °F 23.9 °F 19.0 °F 67% 30.36 in 10.0 mi ESE 4.6 mph - N/A   Clear
6:53 PM 27.0 °F 23.0 °F 19.0 °F 72% 30.36 in 10.0 mi East 3.5 mph - N/A   Clear
7:53 PM 25.0 °F 18.1 °F 18.0 °F 75% 30.34 in 10.0 mi East 5.8 mph - N/A   Clear
8:53 PM 24.1 °F 17.0 °F 19.0 °F 81% 30.33 in 9.0 mi East 5.8 mph - N/A   Clear
9:53 PM 24.1 °F 19.7 °F 19.0 °F 81% 30.32 in 10.0 mi East 3.5 mph - N/A   Clear
10:53 PM 26.1 °F 20.5 °F 19.9 °F 78% 30.31 in 10.0 mi SE 4.6 mph - N/A   Clear
11:53 PM 26.1 °F 19.4 °F 19.9 °F 78% 30.29 in 10.0 mi ESE 5.8 mph - N/A   Clear